TimeEST,TemperatureF,Dew PointF,Humidity,Sea Level PressureIn,VisibilityMPH,Wind Direction,Wind SpeedMPH,Gust SpeedMPH,PrecipitationIn,Events,Conditions,WindDirDegrees,DateUTC
12:15 AM,44.6,39.2,81,30.22,10.0,SSW,11.5,17.3,N/A,,Overcast,200,2013-01-28 05:15:00
12:35 AM,44.6,39.2,81,30.22,10.0,SSW,10.4,16.1,N/A,,Overcast,200,2013-01-28 05:35:00
12:55 AM,44.6,39.2,81,30.22,10.0,South,13.8,-,N/A,,Overcast,190,2013-01-28 05:55:00
1:15 AM,44.6,39.2,81,30.21,10.0,SSW,13.8,-,N/A,,Overcast,200,2013-01-28 06:15:00
1:35 AM,44.6,37.4,76,30.21,10.0,South,13.8,20.7,N/A,,Overcast,190,2013-01-28 06:35:00
1:55 AM,44.6,37.4,76,30.20,10.0,South,11.5,17.3,N/A,,Overcast,190,2013-01-28 06:55:00
2:15 AM,46.4,37.4,71,30.19,10.0,South,11.5,20.7,N/A,,Overcast,190,2013-01-28 07:15:00
2:35 AM,46.4,37.4,71,30.19,10.0,SSW,15.0,21.9,N/A,,Overcast,200,2013-01-28 07:35:00
2:55 AM,46.4,37.4,71,30.19,10.0,South,18.4,23.0,N/A,,Scattered Clouds,190,2013-01-28 07:55:00
3:15 AM,46.4,37.4,71,30.19,10.0,SSW,19.6,26.5,N/A,,Clear,200,2013-01-28 08:15:00
3:35 AM,46.4,35.6,66,30.19,10.0,SSW,16.1,21.9,N/A,,Clear,200,2013-01-28 08:35:00
3:55 AM,46.4,35.6,66,30.18,10.0,SSW,11.5,21.9,N/A,,Clear,200,2013-01-28 08:55:00
4:15 AM,46.4,35.6,66,30.19,10.0,SSW,17.3,23.0,N/A,,Clear,200,2013-01-28 09:15:00
4:35 AM,46.4,33.8,62,30.19,10.0,SSW,16.1,29.9,N/A,,Clear,200,2013-01-28 09:35:00
4:55 AM,46.4,33.8,62,30.18,10.0,South,16.1,24.2,N/A,,Scattered Clouds,190,2013-01-28 09:55:00
5:15 AM,46.4,33.8,62,30.18,10.0,SSW,16.1,25.3,N/A,,Clear,200,2013-01-28 10:15:00
5:35 AM,46.4,33.8,62,30.19,10.0,SSW,16.1,23.0,N/A,,Clear,200,2013-01-28 10:35:00
5:55 AM,46.4,33.8,62,30.18,10.0,SSW,17.3,23.0,N/A,,Clear,200,2013-01-28 10:55:00
6:15 AM,46.4,33.8,62,30.19,10.0,SSW,16.1,23.0,N/A,,Scattered Clouds,200,2013-01-28 11:15:00
6:35 AM,48.2,33.8,58,30.19,10.0,SSW,15.0,23.0,N/A,,Mostly Cloudy,200,2013-01-28 11:35:00
7:15 AM,48.2,35.6,62,30.19,10.0,SSW,10.4,23.0,N/A,,Overcast,200,2013-01-28 12:15:00
7:35 AM,48.2,35.6,62,30.19,10.0,SSW,16.1,25.3,N/A,,Mostly Cloudy,200,2013-01-28 12:35:00
7:55 AM,48.2,35.6,62,30.19,10.0,SSW,16.1,26.5,N/A,,Scattered Clouds,200,2013-01-28 12:55:00
8:15 AM,48.2,37.4,66,30.19,10.0,SSW,15.0,24.2,N/A,,Scattered Clouds,200,2013-01-28 13:15:00
8:35 AM,48.2,37.4,66,30.18,10.0,SSW,19.6,28.8,N/A,,Mostly Cloudy,200,2013-01-28 13:35:00
8:55 AM,50.0,37.4,62,30.18,10.0,SSW,18.4,26.5,N/A,,Overcast,200,2013-01-28 13:55:00
9:15 AM,50.0,39.2,66,30.19,10.0,SSW,19.6,35.7,N/A,,Overcast,200,2013-01-28 14:15:00
9:35 AM,50.0,39.2,66,30.19,10.0,SSW,16.1,27.6,N/A,,Overcast,200,2013-01-28 14:35:00
9:55 AM,51.8,41.0,67,30.19,10.0,SSW,16.1,23.0,N/A,,Overcast,210,2013-01-28 14:55:00
10:15 AM,53.6,41.0,62,30.18,10.0,SSW,17.3,28.8,N/A,,Overcast,210,2013-01-28 15:15:00
10:35 AM,53.6,42.8,67,30.18,10.0,SSW,23.0,32.2,N/A,,Overcast,200,2013-01-28 15:35:00
10:55 AM,55.4,42.8,63,30.18,10.0,SSW,19.6,29.9,N/A,,Overcast,210,2013-01-28 15:55:00
11:35 AM,57.2,44.6,63,30.18,10.0,SW,21.9,29.9,N/A,,Mostly Cloudy,220,2013-01-28 16:35:00
11:55 AM,57.2,44.6,63,30.18,10.0,SW,20.7,27.6,N/A,,Overcast,220,2013-01-28 16:55:00
12:15 PM,53.6,44.6,72,30.18,7.0,SSW,16.1,26.5,N/A,,Overcast,210,2013-01-28 17:15:00
12:35 PM,53.6,44.6,72,30.17,7.0,SSW,16.1,26.5,N/A,,Overcast,210,2013-01-28 17:35:00
12:55 PM,51.8,48.2,88,30.16,10.0,SSW,12.7,21.9,N/A,,Overcast,210,2013-01-28 17:55:00
1:15 PM,51.8,48.2,88,30.15,10.0,SSW,12.7,18.4,N/A,,Overcast,200,2013-01-28 18:15:00
1:35 PM,51.8,48.2,88,30.15,4.0,SSW,16.1,21.9,N/A,,Overcast,210,2013-01-28 18:35:00
1:55 PM,51.8,48.2,88,30.13,5.0,SSW,11.5,18.4,N/A,,Overcast,200,2013-01-28 18:55:00
2:15 PM,51.8,48.2,88,30.13,3.0,SSW,16.1,19.6,N/A,,Overcast,210,2013-01-28 19:15:00
2:35 PM,53.6,50.0,88,30.12,7.0,SSW,13.8,19.6,N/A,,Overcast,200,2013-01-28 19:35:00
2:55 PM,53.6,50.0,88,30.12,7.0,SSW,15.0,21.9,N/A,,Overcast,210,2013-01-28 19:55:00
3:15 PM,53.6,50.0,88,30.11,5.0,SSW,13.8,20.7,N/A,,Overcast,200,2013-01-28 20:15:00
3:35 PM,53.6,50.0,88,30.12,7.0,SSW,13.8,-,N/A,,Overcast,210,2013-01-28 20:35:00
3:55 PM,53.6,50.0,88,30.12,7.0,SSW,12.7,-,N/A,,Overcast,200,2013-01-28 20:55:00
4:15 PM,53.6,50.0,88,30.12,7.0,SSW,11.5,17.3,N/A,,Overcast,200,2013-01-28 21:15:00
4:35 PM,53.6,50.0,88,30.12,7.0,SSW,11.5,17.3,N/A,,Overcast,200,2013-01-28 21:35:00
4:55 PM,53.6,50.0,88,30.13,7.0,SSW,8.1,-,N/A,,Overcast,200,2013-01-28 21:55:00
5:15 PM,51.8,48.2,88,30.13,7.0,SSW,8.1,-,N/A,,Overcast,210,2013-01-28 22:15:00
5:35 PM,51.8,48.2,88,30.13,7.0,SSW,9.2,-,N/A,,Overcast,210,2013-01-28 22:35:00
5:55 PM,51.8,48.2,88,30.13,7.0,SSW,8.1,-,N/A,,Overcast,200,2013-01-28 22:55:00
6:15 PM,51.8,48.2,88,30.13,7.0,South,10.4,16.1,N/A,,Overcast,190,2013-01-28 23:15:00
6:35 PM,51.8,48.2,88,30.13,10.0,South,12.7,-,N/A,,Overcast,190,2013-01-28 23:35:00
6:55 PM,53.6,48.2,82,30.13,10.0,SSW,9.2,-,N/A,,Overcast,200,2013-01-28 23:55:00
7:15 PM,53.6,48.2,82,30.14,10.0,SSW,12.7,-,N/A,,Overcast,200,2013-01-29 00:15:00
7:35 PM,53.6,48.2,82,30.14,10.0,South,10.4,18.4,N/A,,Overcast,190,2013-01-29 00:35:00
7:55 PM,53.6,48.2,82,30.14,10.0,SSW,11.5,-,N/A,,Overcast,200,2013-01-29 00:55:00
8:15 PM,53.6,48.2,82,30.14,10.0,SSW,11.5,-,N/A,,Overcast,200,2013-01-29 01:15:00
8:55 PM,53.6,48.2,82,30.14,10.0,SSW,12.7,-,N/A,,Overcast,200,2013-01-29 01:55:00
9:15 PM,53.6,48.2,82,30.14,10.0,SSW,11.5,-,N/A,,Overcast,200,2013-01-29 02:15:00
10:15 PM,53.6,48.2,82,30.13,10.0,SSW,10.4,-,N/A,,Overcast,200,2013-01-29 03:15:00
10:55 PM,53.6,48.2,82,30.13,10.0,SSW,8.1,-,N/A,,Overcast,200,2013-01-29 03:55:00
11:15 PM,53.6,48.2,82,30.13,10.0,SSW,9.2,17.3,N/A,,Overcast,200,2013-01-29 04:15:00
11:35 PM,53.6,48.2,82,30.13,10.0,SSW,11.5,-,N/A,,Overcast,200,2013-01-29 04:35:00
11:55 PM,53.6,48.2,82,30.13,10.0,South,11.5,-,N/A,,Overcast,190,2013-01-29 04:55:00